DMSP 5D-2 F13 DEB, 40517

Orbit data source: Space-Track

DMSP 5D-2 F13 DEB, 40517 is space debris in SSO originally from a launch on Fri, 24 Mar 1995 UTC launched from the Air Force Western Test Range (AFWTR). Debris objects in space refer to the collection of defunct objects orbiting the Earth. Examples of debris include non-operational satellites, rocket bodies, and fragments generated from explosions, collisions, or faulty payload assembly.

Loading next visibility...
Identifier
40517, 1995-015DD
Orbit
SSO
Country
Flag of USUS
Related business
Manufacturer
Unknown
Mission
Spacecraft
Bus & Motor
Unknown
Mass
Unknown
Launch date (UTC)
1995-03-24 (31 years ago)
Launch vehicle
Unknown
Launch site
Air Force Western Test Range (AFWTR)
Object type
Payload
Rocket body
Debris
Shape & HBR
Unknown shape, 0.1 m
Radar Cross Section
Small (<0.1 m²)

Expand to show TLE details & history
Last TLE update: 21 hours ago

TLE from 21 hours ago
0 DMSP 5D-2 F13 DEB
1 40517U 95015DD  26118.35613222  .00007080  00000-0  17174-2 0  9996
2 40517  98.5868 170.2036 0015635 275.8708  84.0704 14.53156378578937
Epoch: 2026-04-28T08:32Z
TLE epoch observation values (Epoch: 2026-04-28T08:32:49.823Z)
Latitude
-0.00013°
Longitude
-174.3366°
Altitude
717.193 km
Speed
7.498 km/s
True Right ascension
11h 20m 48s
True Declination
0° 00' 00"
Sunlit
Object was in full shadow at epoch
Visualization orbit readout
Latitude
Unknown
Longitude
Unknown
Altitude
Unknown
Speed
Unknown
Apparent Right ascension
Unknown
Apparent Declination
Unknown
Sunlit
N/A
Visualization observer readout
Local Sidereal Time
13:08:02
Azimuth
Unknown
Elevation
Unknown
Doppler factor
Unknown
Orbital elements
Apogee altitude
723.553 km
Perigee altitude
701.38 km
Semi-major axis
7,090.604 km
Eccentricity
0.00156
Inclination
98.5868°
RAAN
170.2036°
Arg. of periapsis
275.8708°
True anomaly
84.24864°
Mean anomaly
84.0704°
Eccentric anomaly
84.15952°
Mean motion
3.63512 °/min
Orbital period
99.03 mins
BSTAR
0.0017174
Loading maneuver chart data...
Computing Atmospheric mass density...

Documentation

Showing up to 5 results
|